When you browse on this site, cookies collect data to enhance your experience and personalize the content and advertising you see.
Visit our Privacy Policy to learn more. By continuing to use the site, you agree to this use of cookies and data.
  • In Schweiz
  • Länderverzeichnis
  • Für 7 Tage
  • Wassertemperatur
  • Satellitenkarten
  • Wetterkarte
  • Widgets
  • user-avatar
    Anmelden

    Stündliche Wetter Bolshak

    Heute, 25 Juni, Dienstag

    Zeit Temperatur Niederschläge Wind Luftdruck Luftfeuchtigkeit
    00:00 +16°C° 0 mm 3 m/S 754 mmHg 70%
    01:00 +14°C° 0 mm 3 m/S 755 mmHg 69%
    02:00 +14°C° 0 mm 3 m/S 755 mmHg 68%
    03:00 +13°C° 0 mm 3 m/S 755 mmHg 69%
    04:00 +14°C° 0 mm 3 m/S 756 mmHg 73%
    05:00 +14°C° 0 mm 3 m/S 756 mmHg 76%
    06:00 +14°C° 0 mm 3 m/S 756 mmHg 80%
    07:00 +16°C° 0 mm 3 m/S 757 mmHg 76%
    08:00 +18°C° 0 mm 4 m/S 757 mmHg 71%
    09:00 +19°C° 0 mm 4 m/S 757 mmHg 67%
    10:00 +20°C° 0 mm 4 m/S 757 mmHg 64%
    11:00 +21°C° 0 mm 4 m/S 757 mmHg 60%
    12:00 +21°C° 0 mm 4 m/S 757 mmHg 57%
    13:00 +22°C° 0.1 mm 4 m/S 757 mmHg 58%
    14:00 +22°C° 0.1 mm 4 m/S 757 mmHg 58%
    15:00 +22°C° 0.1 mm 5 m/S 757 mmHg 59%
    16:00 +21°C° 0 mm 4 m/S 757 mmHg 63%
    17:00 +21°C° 0 mm 4 m/S 757 mmHg 66%
    18:00 +20°C° 0 mm 4 m/S 757 mmHg 70%
    19:00 +19°C° 0 mm 3 m/S 757 mmHg 72%
    20:00 +18°C° 0 mm 3 m/S 757 mmHg 74%
    21:00 +16°C° 0 mm 3 m/S 758 mmHg 76%
    22:00 +14°C° 0 mm 3 m/S 757 mmHg 75%
    23:00 +15°C° 0 mm 2 m/S 757 mmHg 75%

    Morgen, 26 Juni, Mittwoch

    Zeit Temperatur Niederschläge Wind Luftdruck Luftfeuchtigkeit
    00:00 +14°C° 0 mm 2 m/S 757 mmHg 74%
    01:00 +13°C° 0 mm 2 m/S 757 mmHg 75%
    02:00 +13°C° 0 mm 2 m/S 757 mmHg 76%
    03:00 +12°C° 0 mm 1 m/S 758 mmHg 76%
    04:00 +13°C° 0 mm 1 m/S 757 mmHg 77%
    05:00 +14°C° 0 mm 2 m/S 757 mmHg 78%
    06:00 +14°C° 0 mm 2 m/S 757 mmHg 79%
    07:00 +16°C° 0 mm 2 m/S 757 mmHg 74%
    08:00 +18°C° 0 mm 2 m/S 757 mmHg 69%
    09:00 +19°C° 0 mm 2 m/S 757 mmHg 65%
    10:00 +20°C° 0 mm 2 m/S 756 mmHg 61%
    11:00 +21°C° 0 mm 2 m/S 756 mmHg 58%
    12:00 +22°C° 0 mm 3 m/S 756 mmHg 55%
    13:00 +22°C° 0 mm 3 m/S 755 mmHg 55%
    14:00 +22°C° 0 mm 3 m/S 755 mmHg 56%
    15:00 +22°C° 0 mm 3 m/S 755 mmHg 56%
    16:00 +23°C° 0.1 mm 2 m/S 754 mmHg 62%
    17:00 +21°C° 0.1 mm 2 m/S 753 mmHg 68%
    18:00 +21°C° 0.1 mm 2 m/S 753 mmHg 73%
    19:00 +20°C° 0.1 mm 2 m/S 752 mmHg 76%
    20:00 +19°C° 0.1 mm 2 m/S 752 mmHg 78%
    21:00 +18°C° 0.1 mm 2 m/S 752 mmHg 80%
    22:00 +17°C° 0 mm 2 m/S 751 mmHg 83%
    23:00 +17°C° 0 mm 2 m/S 751 mmHg 85%

    übermorgen, 27 Juni, Donnerstag

    Zeit Temperatur Niederschläge Wind Luftdruck Luftfeuchtigkeit
    00:00 +16°C° 0 mm 2 m/S 750 mmHg 88%
    01:00 +16°C° 0 mm 2 m/S 749 mmHg 90%
    02:00 +16°C° 0 mm 3 m/S 749 mmHg 92%
    03:00 +14°C° 0 mm 3 m/S 748 mmHg 94%
    04:00 +16°C° 0 mm 3 m/S 748 mmHg 93%
    05:00 +16°C° 0 mm 3 m/S 747 mmHg 91%
    06:00 +17°C° 0 mm 3 m/S 746 mmHg 90%
    07:00 +17°C° 1 mm 3 m/S 745 mmHg 92%
    08:00 +17°C° 1 mm 3 m/S 745 mmHg 94%
    09:00 +17°C° 1 mm 3 m/S 744 mmHg 95%
    10:00 +18°C° 0.6 mm 4 m/S 743 mmHg 92%
    11:00 +20°C° 0.6 mm 5 m/S 743 mmHg 89%
    12:00 +21°C° 0.6 mm 6 m/S 742 mmHg 85%
    13:00 +21°C° 1.7 mm 6 m/S 741 mmHg 87%
    14:00 +21°C° 1.7 mm 7 m/S 740 mmHg 89%
    15:00 +20°C° 1.7 mm 7 m/S 740 mmHg 91%
    16:00 +20°C° 0.5 mm 7 m/S 739 mmHg 92%
    17:00 +20°C° 0.5 mm 7 m/S 738 mmHg 92%
    18:00 +20°C° 0.5 mm 6 m/S 737 mmHg 92%
    19:00 +20°C° 0.3 mm 6 m/S 737 mmHg 93%
    20:00 +20°C° 0.3 mm 6 m/S 736 mmHg 93%
    21:00 +20°C° 0.3 mm 6 m/S 736 mmHg 94%
    22:00 +20°C° 0.1 mm 5 m/S 735 mmHg 94%
    23:00 +19°C° 0.1 mm 5 m/S 735 mmHg 95%

    28 Juni, Freitag

    Zeit Temperatur Niederschläge Wind Luftdruck Luftfeuchtigkeit
    00:00 +17°C° 0.1 mm 5 m/S 735 mmHg 96%
    01:00 +16°C° 0.1 mm 5 m/S 735 mmHg 95%
    02:00 +15°C° 0.1 mm 5 m/S 734 mmHg 94%
    03:00 +15°C° 0.1 mm 5 m/S 734 mmHg 93%
    04:00 +14°C° 0 mm 5 m/S 734 mmHg 93%
    05:00 +14°C° 0 mm 5 m/S 734 mmHg 93%
    06:00 +13°C° 0 mm 5 m/S 734 mmHg 92%
    07:00 +14°C° 0 mm 5 m/S 734 mmHg 89%
    08:00 +15°C° 0 mm 6 m/S 734 mmHg 85%
    09:00 +15°C° 0 mm 6 m/S 734 mmHg 81%
    10:00 +16°C° 0.2 mm 6 m/S 734 mmHg 80%
    11:00 +16°C° 0.2 mm 6 m/S 734 mmHg 79%
    12:00 +16°C° 0.2 mm 6 m/S 734 mmHg 79%
    13:00 +16°C° 0.5 mm 7 m/S 734 mmHg 78%
    14:00 +16°C° 0.5 mm 8 m/S 734 mmHg 78%
    15:00 +17°C° 0.5 mm 8 m/S 734 mmHg 77%
    16:00 +16°C° 0.3 mm 8 m/S 734 mmHg 79%
    17:00 +15°C° 0.3 mm 7 m/S 734 mmHg 82%
    18:00 +14°C° 0.3 mm 6 m/S 734 mmHg 84%
    19:00 +14°C° 0 mm 6 m/S 734 mmHg 85%
    20:00 +13°C° 0 mm 6 m/S 734 mmHg 87%
    21:00 +11°C° 0 mm 6 m/S 734 mmHg 88%
    22:00 +11°C° 0 mm 6 m/S 734 mmHg 88%
    23:00 +11°C° 0 mm 6 m/S 735 mmHg 88%

    29 Juni, Samstag

    Zeit Temperatur Niederschläge Wind Luftdruck Luftfeuchtigkeit
    00:00 +11°C° 0 mm 6 m/S 735 mmHg 88%
    01:00 +11°C° 0.1 mm 6 m/S 735 mmHg 89%
    02:00 +11°C° 0.1 mm 6 m/S 735 mmHg 90%
    03:00 +11°C° 0.1 mm 6 m/S 735 mmHg 91%
    04:00 +10°C° 0 mm 6 m/S 735 mmHg 90%
    05:00 +10°C° 0 mm 6 m/S 735 mmHg 89%
    06:00 +10°C° 0 mm 5 m/S 736 mmHg 88%
    07:00 +10°C° 0 mm 6 m/S 736 mmHg 85%
    08:00 +10°C° 0 mm 6 m/S 736 mmHg 83%
    09:00 +11°C° 0 mm 6 m/S 737 mmHg 80%
    10:00 +11°C° 0.1 mm 6 m/S 737 mmHg 78%
    11:00 +11°C° 0.1 mm 7 m/S 738 mmHg 77%
    12:00 +11°C° 0.1 mm 7 m/S 738 mmHg 76%
    13:00 +11°C° 0.1 mm 7 m/S 739 mmHg 76%
    14:00 +11°C° 0.1 mm 7 m/S 739 mmHg 77%
    15:00 +11°C° 0.1 mm 7 m/S 739 mmHg 77%
    16:00 +11°C° 0 mm 7 m/S 740 mmHg 77%
    17:00 +10°C° 0 mm 6 m/S 740 mmHg 77%
    18:00 +10°C° 0 mm 6 m/S 740 mmHg 77%
    19:00 +9°C° 0 mm 5 m/S 740 mmHg 78%
    20:00 +9°C° 0 mm 5 m/S 741 mmHg 79%
    21:00 +8°C° 0 mm 4 m/S 741 mmHg 80%
    22:00 +8°C° 0 mm 4 m/S 741 mmHg 81%
    23:00 +8°C° 0 mm 4 m/S 741 mmHg 83%

    30 Juni, Sonntag

    Zeit Temperatur Niederschläge Wind Luftdruck Luftfeuchtigkeit
    00:00 +8°C° 0 mm 4 m/S 741 mmHg 85%
    01:00 +8°C° 0.2 mm 4 m/S 741 mmHg 88%
    02:00 +8°C° 0.2 mm 4 m/S 741 mmHg 91%
    03:00 +8°C° 0.2 mm 4 m/S 741 mmHg 94%
    04:00 +8°C° 0.1 mm 4 m/S 741 mmHg 93%
    05:00 +8°C° 0.1 mm 4 m/S 741 mmHg 93%
    06:00 +8°C° 0.1 mm 5 m/S 741 mmHg 92%
    07:00 +8°C° 0.2 mm 4 m/S 742 mmHg 92%
    08:00 +8°C° 0.2 mm 4 m/S 742 mmHg 91%
    09:00 +10°C° 0.2 mm 3 m/S 742 mmHg 91%
    10:00 +10°C° 0.1 mm 3 m/S 743 mmHg 88%
    11:00 +11°C° 0.1 mm 3 m/S 743 mmHg 86%
    12:00 +12°C° 0.1 mm 3 m/S 744 mmHg 83%
    13:00 +11°C° 0.1 mm 3 m/S 744 mmHg 84%
    14:00 +11°C° 0.1 mm 3 m/S 744 mmHg 85%
    15:00 +11°C° 0.1 mm 3 m/S 745 mmHg 86%
    16:00 +11°C° 0 mm 3 m/S 745 mmHg 84%
    17:00 +12°C° 0 mm 3 m/S 745 mmHg 82%
    18:00 +13°C° 0 mm 2 m/S 746 mmHg 79%
    19:00 +12°C° 0 mm 2 m/S 746 mmHg 83%
    20:00 +11°C° 0 mm 1 m/S 746 mmHg 86%
    21:00 +10°C° 0 mm 1 m/S 746 mmHg 89%
    22:00 +10°C° 0 mm 1 m/S 747 mmHg 90%
    23:00 +9°C° 0 mm 2 m/S 747 mmHg 91%
    Mehr zeigen